Time,TemperatureF,DewpointF,PressureIn,WindDirection,WindDirectionDegrees,WindSpeedMPH,WindSpeedGustMPH,Humidity,HourlyPrecipIn,Conditions,Clouds,dailyrainin,SoftwareType,DateUTC
2013-01-27 00:03:00,45.2,38.4,30.11,SE,130,1.5,2.3,77,0.00,CLR,,0.00,WeatherDisplay:10.37,2013-01-27 08:03:00,
2013-01-27 00:08:00,44.4,37.6,30.11,ENE,72,1.7,3.7,77,0.00,CLR,,0.00,WeatherDisplay:10.37,2013-01-27 08:08:00,
2013-01-27 00:13:00,44.3,37.5,30.11,ENE,72,2.0,3.5,77,0.00,CLR,,0.00,WeatherDisplay:10.37,2013-01-27 08:13:00,
2013-01-27 00:18:00,43.8,37.1,30.11,NE,38,0.0,0.0,77,0.00,CLR,,0.00,WeatherDisplay:10.37,2013-01-27 08:18:00,
2013-01-27 00:23:00,43.8,37.1,30.12,NNW,340,0.7,2.3,77,0.00,CLR,,0.00,WeatherDisplay:10.37,2013-01-27 08:23:00,
2013-01-27 00:28:00,43.8,37.1,30.12,NNW,340,0.0,0.0,77,0.00,CLR,,0.00,WeatherDisplay:10.37,2013-01-27 08:28:00,
2013-01-27 00:33:00,43.1,36.4,30.12,NNW,340,0.0,0.0,77,0.00,CLR,,0.00,WeatherDisplay:10.37,2013-01-27 08:33:00,
2013-01-27 00:38:00,42.9,36.2,30.12,West,281,1.7,2.3,77,0.00,CLR,,0.00,WeatherDisplay:10.37,2013-01-27 08:38:00,
2013-01-27 00:43:00,43.6,36.9,30.12,West,272,0.0,0.0,77,0.00,CLR,,0.00,WeatherDisplay:10.37,2013-01-27 08:43:00,
2013-01-27 00:48:00,42.6,35.9,30.12,West,277,1.9,2.4,77,0.00,CLR,,0.00,WeatherDisplay:10.37,2013-01-27 08:48:00,
2013-01-27 00:53:00,42.3,35.6,30.12,West,272,2.6,3.5,77,0.00,CLR,,0.00,WeatherDisplay:10.37,2013-01-27 08:53:00,
2013-01-27 00:58:00,42.6,35.9,30.11,SW,227,2.7,4.6,77,0.00,CLR,,0.00,WeatherDisplay:10.37,2013-01-27 08:58:00,
2013-01-27 01:03:00,43.6,35.5,30.11,West,277,3.4,5.8,73,0.00,CLR,,0.00,WeatherDisplay:10.37,2013-01-27 09:03:00,
2013-01-27 01:08:00,44.3,36.2,30.11,WNW,285,0.5,1.8,73,0.00,CLR,,0.00,WeatherDisplay:10.37,2013-01-27 09:08:00,
2013-01-27 01:13:00,43.6,35.5,30.12,West,277,3.4,4.6,73,0.00,CLR,,0.00,WeatherDisplay:10.37,2013-01-27 09:13:00,
2013-01-27 01:18:00,43.2,35.1,30.12,WSW,246,3.4,4.6,73,0.00,CLR,,0.00,WeatherDisplay:10.37,2013-01-27 09:18:00,
2013-01-27 01:23:00,43.6,35.5,30.12,West,281,3.0,5.8,73,0.00,CLR,,0.00,WeatherDisplay:10.37,2013-01-27 09:23:00,
2013-01-27 01:28:00,43.4,35.3,30.12,WNW,282,2.8,3.5,73,0.00,CLR,,0.00,WeatherDisplay:10.37,2013-01-27 09:28:00,
2013-01-27 01:33:00,43.3,35.2,30.12,West,267,2.2,4.6,73,0.00,CLR,,0.00,WeatherDisplay:10.37,2013-01-27 09:33:00,
2013-01-27 01:38:00,43.0,34.9,30.12,WSW,246,0.0,0.3,73,0.00,CLR,,0.00,WeatherDisplay:10.37,2013-01-27 09:38:00,
2013-01-27 01:43:00,42.9,34.8,30.12,West,263,1.5,3.5,73,0.00,CLR,,0.00,WeatherDisplay:10.37,2013-01-27 09:43:00,
2013-01-27 01:48:00,42.3,34.3,30.12,West,260,1.9,3.2,73,0.00,CLR,,0.00,WeatherDisplay:10.37,2013-01-27 09:48:00,
2013-01-27 01:53:00,42.4,34.4,30.12,WSW,256,2.7,3.5,73,0.00,CLR,,0.00,WeatherDisplay:10.37,2013-01-27 09:53:00,
2013-01-27 01:58:00,42.6,34.5,30.12,WSW,244,1.6,3.5,73,0.00,CLR,,0.00,WeatherDisplay:10.37,2013-01-27 09:58:00,
2013-01-27 02:03:00,42.8,42.0,30.13,West,271,1.9,8.1,97,0.00,CLR,,0.00,WeatherDisplay:10.37,2013-01-27 10:03:00,
2013-01-27 02:08:00,42.7,41.9,30.13,West,275,2.6,4.6,97,0.00,CLR,,0.00,WeatherDisplay:10.37,2013-01-27 10:08:00,
2013-01-27 02:13:00,43.3,42.5,30.13,West,275,0.6,2.5,97,0.00,CLR,,0.00,WeatherDisplay:10.37,2013-01-27 10:13:00,
2013-01-27 02:18:00,43.0,42.2,30.13,West,277,2.5,4.6,97,0.00,CLR,,0.00,WeatherDisplay:10.37,2013-01-27 10:18:00,
2013-01-27 02:23:00,43.2,42.4,30.13,West,263,2.2,4.6,97,0.00,CLR,,0.00,WeatherDisplay:10.37,2013-01-27 10:23:00,
2013-01-27 02:28:00,42.6,41.8,30.13,West,272,1.8,3.4,97,0.00,CLR,,0.00,WeatherDisplay:10.37,2013-01-27 10:28:00,
2013-01-27 02:33:00,42.9,42.1,30.13,West,270,2.3,3.5,97,0.00,CLR,,0.00,WeatherDisplay:10.37,2013-01-27 10:33:00,
2013-01-27 02:38:00,43.3,42.5,30.13,West,280,1.7,4.6,97,0.00,CLR,,0.00,WeatherDisplay:10.37,2013-01-27 10:38:00,
2013-01-27 02:43:00,43.6,42.8,30.13,NW,306,2.5,4.8,97,0.00,CLR,,0.00,WeatherDisplay:10.37,2013-01-27 10:43:00,
2013-01-27 02:48:00,43.3,42.5,30.13,WNW,301,4.7,8.1,97,0.00,CLR,,0.00,WeatherDisplay:10.37,2013-01-27 10:48:00,
2013-01-27 02:53:00,43.7,42.9,30.13,WNW,296,0.1,2.3,97,0.00,CLR,,0.00,WeatherDisplay:10.37,2013-01-27 10:53:00,
2013-01-27 02:58:00,43.7,42.9,30.13,West,271,0.1,1.1,97,0.00,CLR,,0.00,WeatherDisplay:10.37,2013-01-27 10:58:00,
2013-01-27 03:03:00,43.7,42.9,30.13,NNW,330,0.7,3.5,97,0.00,CLR,,0.00,WeatherDisplay:10.37,2013-01-27 11:03:00,
2013-01-27 03:08:00,43.3,42.5,30.13,WNW,301,1.9,4.6,97,0.00,CLR,,0.00,WeatherDisplay:10.37,2013-01-27 11:08:00,
2013-01-27 03:13:00,43.5,42.7,30.13,NNW,340,3.9,5.8,97,0.00,CLR,,0.00,WeatherDisplay:10.37,2013-01-27 11:13:00,
2013-01-27 03:18:00,43.3,42.8,30.13,West,278,2.7,3.5,98,0.00,CLR,,0.00,WeatherDisplay:10.37,2013-01-27 11:18:00,
2013-01-27 03:23:00,43.1,42.6,30.13,WNW,289,3.3,7.3,98,0.00,CLR,,0.00,WeatherDisplay:10.37,2013-01-27 11:23:00,
2013-01-27 03:28:00,43.0,42.5,30.13,West,274,3.9,6.9,98,0.00,CLR,,0.00,WeatherDisplay:10.37,2013-01-27 11:28:00,
2013-01-27 03:33:00,43.5,43.0,30.13,NW,306,4.3,8.1,98,0.00,CLR,,0.00,WeatherDisplay:10.37,2013-01-27 11:33:00,
2013-01-27 03:38:00,43.4,42.9,30.13,NW,319,4.5,6.9,98,0.00,CLR,,0.00,WeatherDisplay:10.37,2013-01-27 11:38:00,
2013-01-27 03:43:00,43.7,43.2,30.13,WNW,294,4.2,9.2,98,0.00,CLR,,0.00,WeatherDisplay:10.37,2013-01-27 11:43:00,
2013-01-27 03:48:00,43.7,43.2,30.13,NW,315,3.3,6.9,98,0.00,CLR,,0.00,WeatherDisplay:10.37,2013-01-27 11:48:00,
2013-01-27 03:53:00,43.6,43.1,30.13,West,264,0.9,2.3,98,0.00,CLR,,0.00,WeatherDisplay:10.37,2013-01-27 11:53:00,
2013-01-27 03:58:00,43.2,42.7,30.13,NW,325,1.6,2.3,98,0.00,CLR,,0.00,WeatherDisplay:10.37,2013-01-27 11:58:00,
2013-01-27 04:03:00,42.6,42.1,30.13,WNW,296,2.4,3.5,98,0.00,CLR,,0.00,WeatherDisplay:10.37,2013-01-27 12:03:00,
2013-01-27 04:08:00,42.5,42.0,30.13,West,272,3.1,3.5,98,0.00,CLR,,0.00,WeatherDisplay:10.37,2013-01-27 12:08:00,
2013-01-27 04:13:00,42.6,42.1,30.13,WNW,301,2.4,4.6,98,0.00,CLR,,0.00,WeatherDisplay:10.37,2013-01-27 12:13:00,
2013-01-27 04:18:00,42.7,42.2,30.14,NW,319,2.3,5.8,98,0.00,CLR,,0.00,WeatherDisplay:10.37,2013-01-27 12:18:00,
2013-01-27 04:23:00,42.6,42.1,30.14,West,267,0.9,3.5,98,0.00,CLR,,0.00,WeatherDisplay:10.37,2013-01-27 12:23:00,
2013-01-27 04:28:00,42.3,41.8,30.14,WNW,282,2.7,3.5,98,0.00,CLR,,0.00,WeatherDisplay:10.37,2013-01-27 12:28:00,
2013-01-27 04:33:00,42.3,41.8,30.14,NW,313,3.9,8.1,98,0.00,CLR,,0.00,WeatherDisplay:10.37,2013-01-27 12:33:00,
2013-01-27 04:38:00,42.7,42.2,30.14,NW,304,3.3,5.8,98,0.00,CLR,,0.00,WeatherDisplay:10.37,2013-01-27 12:38:00,
2013-01-27 04:43:00,42.5,42.0,30.14,NW,325,2.3,4.6,98,0.00,CLR,,0.00,WeatherDisplay:10.37,2013-01-27 12:43:00,
2013-01-27 04:48:00,42.8,42.3,30.14,West,271,1.6,4.6,98,0.00,CLR,,0.00,WeatherDisplay:10.37,2013-01-27 12:48:00,
2013-01-27 04:53:00,42.7,42.2,30.14,WNW,284,2.2,3.5,98,0.00,CLR,,0.00,WeatherDisplay:10.37,2013-01-27 12:53:00,
2013-01-27 04:58:00,42.7,42.2,30.14,NW,319,0.1,0.0,98,0.00,CLR,,0.00,WeatherDisplay:10.37,2013-01-27 12:58:00,
2013-01-27 05:03:00,42.7,42.2,30.14,West,265,1.5,2.3,98,0.00,CLR,,0.00,WeatherDisplay:10.37,2013-01-27 13:03:00,
2013-01-27 05:08:00,42.9,42.4,30.14,NNW,329,2.9,4.6,98,0.00,CLR,,0.00,WeatherDisplay:10.37,2013-01-27 13:08:00,
2013-01-27 05:13:00,43.2,42.7,30.14,NW,319,4.7,7.1,98,0.00,CLR,,0.00,WeatherDisplay:10.37,2013-01-27 13:13:00,
2013-01-27 05:18:00,43.2,42.7,30.14,WNW,284,4.1,6.9,98,0.00,CLR,,0.00,WeatherDisplay:10.37,2013-01-27 13:18:00,
2013-01-27 05:23:00,43.2,42.7,30.14,NNW,343,4.7,6.9,98,0.00,CLR,,0.00,WeatherDisplay:10.37,2013-01-27 13:23:00,
2013-01-27 05:28:00,42.9,42.4,30.14,WNW,302,3.3,6.4,98,0.00,CLR,,0.00,WeatherDisplay:10.37,2013-01-27 13:28:00,
2013-01-27 05:33:00,42.8,42.3,30.14,West,265,4.3,5.8,98,0.00,CLR,,0.00,WeatherDisplay:10.37,2013-01-27 13:33:00,
2013-01-27 05:38:00,43.0,42.5,30.14,WNW,291,4.0,5.8,98,0.00,CLR,,0.00,WeatherDisplay:10.37,2013-01-27 13:38:00,
2013-01-27 05:43:00,42.9,42.4,30.14,NNW,333,3.5,6.9,98,0.00,CLR,,0.00,WeatherDisplay:10.37,2013-01-27 13:43:00,
2013-01-27 05:48:00,42.8,42.3,30.14,NW,319,1.9,3.5,98,0.00,CLR,,0.00,WeatherDisplay:10.37,2013-01-27 13:48:00,
2013-01-27 05:53:00,42.8,42.3,30.14,NW,309,5.4,8.1,98,0.00,CLR,,0.00,WeatherDisplay:10.37,2013-01-27 13:53:00,
2013-01-27 05:58:00,42.8,42.3,30.14,NW,304,3.6,6.9,98,0.00,CLR,,0.00,WeatherDisplay:10.37,2013-01-27 13:58:00,
2013-01-27 06:03:00,42.9,42.6,30.15,NNW,329,4.8,8.1,99,0.00,CLR,,0.00,WeatherDisplay:10.37,2013-01-27 14:03:00,
2013-01-27 06:08:00,42.7,42.4,30.15,NNE,20,4.0,9.2,99,0.00,CLR,,0.00,WeatherDisplay:10.37,2013-01-27 14:08:00,
2013-01-27 06:13:00,43.0,42.7,30.15,NW,320,4.2,9.2,99,0.00,CLR,,0.00,WeatherDisplay:10.37,2013-01-27 14:13:00,
2013-01-27 06:18:00,42.7,42.4,30.14,NW,326,2.9,4.9,99,0.00,CLR,,0.00,WeatherDisplay:10.37,2013-01-27 14:18:00,
2013-01-27 06:23:00,42.6,42.3,30.14,WNW,284,4.5,6.9,99,0.00,CLR,,0.00,WeatherDisplay:10.37,2013-01-27 14:23:00,
2013-01-27 06:28:00,42.7,42.4,30.14,WNW,301,4.6,9.2,99,0.00,CLR,,0.00,WeatherDisplay:10.37,2013-01-27 14:28:00,
2013-01-27 06:33:00,42.5,42.2,30.14,NW,312,4.1,8.1,99,0.00,CLR,,0.00,WeatherDisplay:10.37,2013-01-27 14:33:00,
2013-01-27 06:38:00,42.5,42.2,30.14,NNW,343,4.8,6.9,99,0.00,CLR,,0.00,WeatherDisplay:10.37,2013-01-27 14:38:00,
2013-01-27 06:43:00,42.6,42.3,30.14,WNW,294,2.8,5.7,99,0.00,CLR,,0.00,WeatherDisplay:10.37,2013-01-27 14:43:00,
2013-01-27 06:48:00,42.7,42.4,30.14,NW,326,6.5,10.4,99,0.00,CLR,,0.00,WeatherDisplay:10.37,2013-01-27 14:48:00,
2013-01-27 06:53:00,42.5,42.2,30.15,NNW,329,4.5,8.1,99,0.00,CLR,,0.00,WeatherDisplay:10.37,2013-01-27 14:53:00,
2013-01-27 06:58:00,42.5,42.2,30.15,WNW,289,4.6,8.1,99,0.00,CLR,,0.00,WeatherDisplay:10.37,2013-01-27 14:58:00,
2013-01-27 07:03:00,42.6,42.1,30.15,NNW,332,5.2,8.1,98,0.00,CLR,,0.00,WeatherDisplay:10.37,2013-01-27 15:03:00,
2013-01-27 07:08:00,42.5,42.0,30.15,NNW,329,6.1,9.2,98,0.00,CLR,,0.00,WeatherDisplay:10.37,2013-01-27 15:08:00,
2013-01-27 07:13:00,42.5,42.0,30.14,NW,313,3.4,6.9,98,0.00,CLR,,0.00,WeatherDisplay:10.37,2013-01-27 15:13:00,
2013-01-27 07:18:00,42.5,42.0,30.14,West,280,2.7,5.8,98,0.00,CLR,,0.00,WeatherDisplay:10.37,2013-01-27 15:18:00,
2013-01-27 07:23:00,42.5,42.0,30.14,WNW,295,3.1,5.8,98,0.00,CLR,,0.00,WeatherDisplay:10.37,2013-01-27 15:23:00,
2013-01-27 07:28:00,42.2,41.7,30.15,NW,312,3.5,6.9,98,0.00,CLR,,0.00,WeatherDisplay:10.37,2013-01-27 15:28:00,
2013-01-27 07:33:00,42.4,41.9,30.15,WNW,291,3.9,6.9,98,0.00,CLR,,0.00,WeatherDisplay:10.37,2013-01-27 15:33:00,
2013-01-27 07:38:00,42.5,42.0,30.16,North,350,4.1,6.9,98,0.00,CLR,,0.00,WeatherDisplay:10.37,2013-01-27 15:38:00,
2013-01-27 07:43:00,42.8,42.3,30.16,West,278,4.6,8.1,98,0.00,CLR,,0.00,WeatherDisplay:10.37,2013-01-27 15:43:00,
2013-01-27 07:48:00,42.9,42.4,30.15,NW,312,5.2,8.1,98,0.00,CLR,,0.00,WeatherDisplay:10.37,2013-01-27 15:48:00,
2013-01-27 07:53:00,43.3,42.8,30.16,NW,318,4.9,9.2,98,0.00,CLR,,0.00,WeatherDisplay:10.37,2013-01-27 15:53:00,
2013-01-27 07:58:00,43.6,43.1,30.16,NW,311,4.1,9.2,98,0.00,CLR,,0.00,WeatherDisplay:10.37,2013-01-27 15:58:00,
2013-01-27 08:03:00,43.8,43.5,30.17,NW,309,4.8,8.1,99,0.00,CLR,,0.00,WeatherDisplay:10.37,2013-01-27 16:03:00,
2013-01-27 08:08:00,44.3,44.0,30.17,WNW,288,4.9,6.9,99,0.00,CLR,,0.00,WeatherDisplay:10.37,2013-01-27 16:08:00,
2013-01-27 08:13:00,44.6,44.3,30.17,North,350,3.5,6.9,99,0.00,CLR,,0.00,WeatherDisplay:10.37,2013-01-27 16:13:00,
2013-01-27 08:18:00,44.9,44.6,30.17,NNW,344,4.0,8.1,99,0.00,CLR,,0.00,WeatherDisplay:10.37,2013-01-27 16:18:00,
2013-01-27 08:23:00,45.6,45.3,30.17,WNW,302,3.5,6.9,99,0.00,CLR,,0.00,WeatherDisplay:10.37,2013-01-27 16:23:00,
2013-01-27 08:28:00,45.7,45.4,30.17,NW,326,4.3,6.9,99,0.00,CLR,,0.00,WeatherDisplay:10.37,2013-01-27 16:28:00,
2013-01-27 08:33:00,46.0,45.7,30.17,WNW,301,4.6,8.1,99,0.00,CLR,,0.00,WeatherDisplay:10.37,2013-01-27 16:33:00,
2013-01-27 08:38:00,46.7,46.4,30.17,North,360,5.3,9.2,99,0.00,CLR,,0.00,WeatherDisplay:10.37,2013-01-27 16:38:00,
2013-01-27 08:43:00,46.8,46.5,30.17,North,349,4.5,8.1,99,0.00,CLR,,0.00,WeatherDisplay:10.37,2013-01-27 16:43:00,
2013-01-27 08:48:00,47.2,46.9,30.17,NNW,332,5.7,9.2,99,0.00,CLR,,0.00,WeatherDisplay:10.37,2013-01-27 16:48:00,
2013-01-27 08:53:00,47.6,47.3,30.17,NNW,329,3.3,5.8,99,0.00,CLR,,0.00,WeatherDisplay:10.37,2013-01-27 16:53:00,
2013-01-27 08:58:00,48.4,48.1,30.18,North,354,4.4,9.2,99,0.00,CLR,,0.00,WeatherDisplay:10.37,2013-01-27 16:58:00,
2013-01-27 09:03:00,48.7,48.4,30.18,NW,319,4.9,9.2,99,0.00,CLR,,0.00,WeatherDisplay:10.37,2013-01-27 17:03:00,
2013-01-27 09:08:00,48.9,48.6,30.18,WNW,294,5.5,8.1,99,0.00,CLR,,0.00,WeatherDisplay:10.37,2013-01-27 17:08:00,
2013-01-27 09:13:00,49.1,48.8,30.19,NW,308,4.5,7.5,99,0.00,CLR,,0.00,WeatherDisplay:10.37,2013-01-27 17:13:00,
2013-01-27 09:18:00,49.6,48.5,30.19,NW,312,6.2,9.2,96,0.00,CLR,,0.00,WeatherDisplay:10.37,2013-01-27 17:18:00,
2013-01-27 09:23:00,50.4,49.3,30.19,NW,322,4.4,6.9,96,0.00,CLR,,0.00,WeatherDisplay:10.37,2013-01-27 17:23:00,
2013-01-27 09:28:00,50.4,49.3,30.19,NNW,342,4.3,7.1,96,0.00,CLR,,0.00,WeatherDisplay:10.37,2013-01-27 17:28:00,
2013-01-27 09:33:00,50.9,49.8,30.19,NW,320,4.1,6.9,96,0.00,CLR,,0.00,WeatherDisplay:10.37,2013-01-27 17:33:00,
2013-01-27 09:38:00,51.3,50.2,30.19,North,0,5.4,8.1,96,0.00,CLR,,0.00,WeatherDisplay:10.37,2013-01-27 17:38:00,
2013-01-27 09:43:00,51.3,50.2,30.20,NW,306,5.4,9.2,96,0.00,CLR,,0.00,WeatherDisplay:10.37,2013-01-27 17:43:00,
2013-01-27 09:48:00,51.4,50.3,30.20,NW,323,4.8,8.1,96,0.00,CLR,,0.00,WeatherDisplay:10.37,2013-01-27 17:48:00,
2013-01-27 09:53:00,52.1,51.0,30.21,WNW,294,5.0,8.1,96,0.00,CLR,,0.00,WeatherDisplay:10.37,2013-01-27 17:53:00,
2013-01-27 09:58:00,52.3,51.2,30.20,NNW,339,4.4,6.9,96,0.00,CLR,,0.00,WeatherDisplay:10.37,2013-01-27 17:58:00,
2013-01-27 10:03:00,52.7,43.6,30.21,WNW,298,5.5,8.1,71,0.00,CLR,,0.00,WeatherDisplay:10.37,2013-01-27 18:03:00,
2013-01-27 10:08:00,53.1,43.9,30.21,NNW,332,5.0,6.9,71,0.00,CLR,,0.00,WeatherDisplay:10.37,2013-01-27 18:08:00,
2013-01-27 10:13:00,53.6,44.4,30.21,NW,316,4.6,6.9,71,0.00,CLR,,0.00,WeatherDisplay:10.37,2013-01-27 18:13:00,
2013-01-27 10:18:00,54.0,44.8,30.22,NW,320,2.8,5.8,71,0.00,CLR,,0.00,WeatherDisplay:10.37,2013-01-27 18:18:00,
2013-01-27 10:23:00,54.3,45.1,30.22,WNW,292,1.2,4.6,71,0.00,CLR,,0.00,WeatherDisplay:10.37,2013-01-27 18:23:00,
2013-01-27 10:28:00,54.7,45.5,30.22,North,4,5.1,10.4,71,0.00,CLR,,0.00,WeatherDisplay:10.37,2013-01-27 18:28:00,
2013-01-27 10:33:00,55.2,46.0,30.22,WNW,292,4.1,8.1,71,0.00,CLR,,0.00,WeatherDisplay:10.37,2013-01-27 18:33:00,
2013-01-27 10:38:00,55.1,45.9,30.22,NW,319,2.8,5.8,71,0.00,CLR,,0.00,WeatherDisplay:10.37,2013-01-27 18:38:00,
2013-01-27 10:43:00,55.6,46.3,30.22,WNW,296,3.3,5.8,71,0.00,CLR,,0.00,WeatherDisplay:10.37,2013-01-27 18:43:00,
2013-01-27 10:48:00,55.8,46.5,30.22,WNW,299,4.2,6.9,71,0.00,CLR,,0.00,WeatherDisplay:10.37,2013-01-27 18:48:00,
2013-01-27 10:53:00,56.2,46.9,30.22,NW,311,6.2,8.1,71,0.00,CLR,,0.00,WeatherDisplay:10.37,2013-01-27 18:53:00,
2013-01-27 10:58:00,56.2,46.9,30.22,WNW,299,3.6,8.1,71,0.00,CLR,,0.00,WeatherDisplay:10.37,2013-01-27 18:58:00,
2013-01-27 11:03:00,56.8,47.5,30.22,NW,309,4.6,6.9,71,0.00,CLR,,0.00,WeatherDisplay:10.37,2013-01-27 19:03:00,
2013-01-27 11:08:00,57.3,48.0,30.22,WNW,301,5.6,8.1,71,0.00,CLR,,0.00,WeatherDisplay:10.37,2013-01-27 19:08:00,
2013-01-27 11:13:00,57.6,48.3,30.22,WNW,291,2.5,4.3,71,0.00,CLR,,0.00,WeatherDisplay:10.37,2013-01-27 19:13:00,
2013-01-27 11:18:00,58.0,36.8,30.22,West,261,1.2,2.3,45,0.00,CLR,,0.00,WeatherDisplay:10.37,2013-01-27 19:18:00,
2013-01-27 11:23:00,57.3,36.1,30.22,NNW,336,0.7,3.5,45,0.00,CLR,,0.00,WeatherDisplay:10.37,2013-01-27 19:23:00,
2013-01-27 11:28:00,57.7,36.5,30.22,NW,311,2.5,3.5,45,0.00,CLR,,0.00,WeatherDisplay:10.37,2013-01-27 19:28:00,
2013-01-27 11:33:00,58.2,36.9,30.22,WNW,302,3.9,9.2,45,0.00,CLR,,0.00,WeatherDisplay:10.37,2013-01-27 19:33:00,
2013-01-27 11:38:00,58.9,37.6,30.22,North,1,2.8,5.9,45,0.00,CLR,,0.00,WeatherDisplay:10.37,2013-01-27 19:38:00,
2013-01-27 11:43:00,59.1,37.8,30.21,NW,326,2.3,5.8,45,0.00,CLR,,0.00,WeatherDisplay:10.37,2013-01-27 19:43:00,
2013-01-27 11:48:00,59.1,37.8,30.21,West,260,4.6,8.1,45,0.00,CLR,,0.00,WeatherDisplay:10.37,2013-01-27 19:48:00,
2013-01-27 11:53:00,58.6,37.3,30.21,West,278,4.9,9.2,45,0.00,CLR,,0.00,WeatherDisplay:10.37,2013-01-27 19:53:00,
2013-01-27 11:58:00,59.1,37.8,30.21,NW,318,3.3,9.2,45,0.00,CLR,,0.00,WeatherDisplay:10.37,2013-01-27 19:58:00,
2013-01-27 12:03:00,59.4,38.0,30.21,North,360,4.4,9.2,45,0.00,CLR,,0.00,WeatherDisplay:10.37,2013-01-27 20:03:00,
2013-01-27 12:08:00,59.4,38.0,30.20,West,271,7.0,10.4,45,0.00,CLR,,0.00,WeatherDisplay:10.37,2013-01-27 20:08:00,
2013-01-27 12:13:00,59.5,38.1,30.20,West,281,5.4,8.1,45,0.00,CLR,,0.00,WeatherDisplay:10.37,2013-01-27 20:13:00,
2013-01-27 12:18:00,58.8,31.2,30.20,WNW,298,6.0,10.4,35,0.00,CLR,,0.00,WeatherDisplay:10.37,2013-01-27 20:18:00,
2013-01-27 12:23:00,59.4,31.7,30.19,West,274,5.3,10.4,35,0.00,CLR,,0.00,WeatherDisplay:10.37,2013-01-27 20:23:00,
2013-01-27 12:28:00,59.7,32.0,30.19,WNW,284,5.8,12.7,35,0.00,CLR,,0.00,WeatherDisplay:10.37,2013-01-27 20:28:00,
2013-01-27 12:33:00,60.5,32.7,30.19,NW,305,5.7,9.2,35,0.00,CLR,,0.00,WeatherDisplay:10.37,2013-01-27 20:33:00,
2013-01-27 12:38:00,60.1,32.3,30.19,WSW,257,5.2,11.5,35,0.00,CLR,,0.00,WeatherDisplay:10.37,2013-01-27 20:38:00,
2013-01-27 12:43:00,59.8,32.1,30.19,NNW,337,3.7,8.1,35,0.00,CLR,,0.00,WeatherDisplay:10.37,2013-01-27 20:43:00,
2013-01-27 12:48:00,59.8,32.1,30.19,WNW,289,4.3,9.2,35,0.00,CLR,,0.00,WeatherDisplay:10.37,2013-01-27 20:48:00,
2013-01-27 12:53:00,60.5,32.7,30.19,WNW,295,4.6,8.1,35,0.00,CLR,,0.00,WeatherDisplay:10.37,2013-01-27 20:53:00,
2013-01-27 12:58:00,60.8,33.0,30.19,North,6,5.0,9.2,35,0.00,CLR,,0.00,WeatherDisplay:10.37,2013-01-27 20:58:00,
2013-01-27 13:03:00,60.4,32.6,30.19,NW,313,6.9,10.4,35,0.00,CLR,,0.00,WeatherDisplay:10.37,2013-01-27 21:03:00,
2013-01-27 13:08:00,61.0,33.1,30.18,WNW,287,4.1,6.9,35,0.00,CLR,,0.00,WeatherDisplay:10.37,2013-01-27 21:08:00,
2013-01-27 13:13:00,61.0,33.1,30.18,WNW,282,5.1,6.9,35,0.00,CLR,,0.00,WeatherDisplay:10.37,2013-01-27 21:13:00,
2013-01-27 13:18:00,61.8,33.1,30.18,West,272,3.9,5.8,34,0.00,CLR,,0.00,WeatherDisplay:10.37,2013-01-27 21:18:00,
2013-01-27 13:23:00,61.3,32.7,30.18,WNW,289,5.1,10.4,34,0.00,CLR,,0.00,WeatherDisplay:10.37,2013-01-27 21:23:00,
2013-01-27 13:28:00,61.1,32.5,30.18,WNW,292,3.0,5.8,34,0.00,CLR,,0.00,WeatherDisplay:10.37,2013-01-27 21:28:00,
2013-01-27 13:33:00,60.6,32.1,30.18,West,281,6.5,11.5,34,0.00,CLR,,0.00,WeatherDisplay:10.37,2013-01-27 21:33:00,
2013-01-27 13:38:00,60.4,31.9,30.18,WNW,296,5.0,8.1,34,0.00,CLR,,0.00,WeatherDisplay:10.37,2013-01-27 21:38:00,
2013-01-27 13:43:00,61.0,32.4,30.17,WNW,299,3.4,9.1,34,0.00,CLR,,0.00,WeatherDisplay:10.37,2013-01-27 21:43:00,
2013-01-27 13:48:00,61.5,32.8,30.17,West,271,4.4,8.1,34,0.00,CLR,,0.00,WeatherDisplay:10.37,2013-01-27 21:48:00,
2013-01-27 13:53:00,60.6,32.1,30.17,WNW,287,2.8,4.6,34,0.00,CLR,,0.00,WeatherDisplay:10.37,2013-01-27 21:53:00,
2013-01-27 13:58:00,61.3,32.7,30.17,NW,319,3.8,8.1,34,0.00,CLR,,0.00,WeatherDisplay:10.37,2013-01-27 21:58:00,
2013-01-27 14:03:00,61.9,31.7,30.17,WNW,284,4.2,8.1,32,0.00,CLR,,0.00,WeatherDisplay:10.37,2013-01-27 22:03:00,
2013-01-27 14:08:00,61.5,31.3,30.17,NW,306,4.7,6.9,32,0.00,CLR,,0.00,WeatherDisplay:10.37,2013-01-27 22:08:00,
2013-01-27 14:13:00,61.7,31.5,30.17,West,274,2.6,5.8,32,0.00,CLR,,0.00,WeatherDisplay:10.37,2013-01-27 22:13:00,
2013-01-27 14:18:00,61.0,30.9,30.17,WNW,287,0.8,4.3,32,0.00,CLR,,0.00,WeatherDisplay:10.37,2013-01-27 22:18:00,
2013-01-27 14:23:00,61.1,31.0,30.17,NW,316,3.4,5.8,32,0.00,CLR,,0.00,WeatherDisplay:10.37,2013-01-27 22:23:00,
2013-01-27 14:28:00,61.1,31.0,30.17,West,260,3.1,5.8,32,0.00,CLR,,0.00,WeatherDisplay:10.37,2013-01-27 22:28:00,
2013-01-27 14:33:00,60.2,30.2,30.17,NNW,333,0.0,0.0,32,0.00,CLR,,0.00,WeatherDisplay:10.37,2013-01-27 22:33:00,
2013-01-27 14:38:00,58.9,29.1,30.17,NNE,23,0.0,0.0,32,0.00,CLR,,0.00,WeatherDisplay:10.37,2013-01-27 22:38:00,
2013-01-27 14:43:00,59.5,29.6,30.17,South,181,0.7,2.3,32,0.00,CLR,,0.00,WeatherDisplay:10.37,2013-01-27 22:43:00,
2013-01-27 14:48:00,59.7,29.8,30.16,West,271,4.2,8.1,32,0.00,CLR,,0.00,WeatherDisplay:10.37,2013-01-27 22:48:00,
2013-01-27 14:53:00,60.1,30.1,30.16,SW,217,5.8,9.2,32,0.00,CLR,,0.00,WeatherDisplay:10.37,2013-01-27 22:53:00,
2013-01-27 14:58:00,59.8,29.9,30.17,SSW,210,5.3,8.1,32,0.00,CLR,,0.00,WeatherDisplay:10.37,2013-01-27 22:58:00,
2013-01-27 15:03:00,59.3,30.2,30.16,WSW,251,5.9,9.2,33,0.00,CLR,,0.00,WeatherDisplay:10.37,2013-01-27 23:03:00,
2013-01-27 15:08:00,59.4,30.3,30.16,WSW,247,5.1,9.2,33,0.00,CLR,,0.00,WeatherDisplay:10.37,2013-01-27 23:08:00,
2013-01-27 15:13:00,59.3,30.2,30.16,WNW,289,5.8,9.2,33,0.00,CLR,,0.00,WeatherDisplay:10.37,2013-01-27 23:13:00,
2013-01-27 15:18:00,59.4,30.3,30.16,SW,220,5.1,8.1,33,0.00,CLR,,0.00,WeatherDisplay:10.37,2013-01-27 23:18:00,
2013-01-27 15:23:00,58.9,29.8,30.16,West,268,2.6,6.9,33,0.00,CLR,,0.00,WeatherDisplay:10.37,2013-01-27 23:23:00,
2013-01-27 15:28:00,58.9,29.8,30.16,WSW,244,4.5,8.1,33,0.00,CLR,,0.00,WeatherDisplay:10.37,2013-01-27 23:28:00,
2013-01-27 15:33:00,58.5,29.5,30.16,SW,227,5.1,8.1,33,0.00,CLR,,0.00,WeatherDisplay:10.37,2013-01-27 23:33:00,
2013-01-27 15:38:00,58.5,29.5,30.16,SSW,193,2.5,4.6,33,0.00,CLR,,0.00,WeatherDisplay:10.37,2013-01-27 23:38:00,
2013-01-27 15:43:00,58.4,29.4,30.16,SSW,213,6.2,10.4,33,0.00,CLR,,0.00,WeatherDisplay:10.37,2013-01-27 23:43:00,
2013-01-27 15:48:00,58.7,29.6,30.15,WSW,243,6.4,10.4,33,0.00,CLR,,0.00,WeatherDisplay:10.37,2013-01-27 23:48:00,
2013-01-27 15:53:00,58.1,29.1,30.15,South,189,4.7,9.2,33,0.00,CLR,,0.00,WeatherDisplay:10.37,2013-01-27 23:53:00,
2013-01-27 15:58:00,57.8,28.9,30.15,SSW,212,2.0,4.6,33,0.00,CLR,,0.00,WeatherDisplay:10.37,2013-01-27 23:58:00,
2013-01-27 16:03:00,57.5,35.7,30.15,WSW,256,2.6,4.6,44,0.00,BKN,,0.00,WeatherDisplay:10.37,2013-01-28 00:03:00,
2013-01-27 16:08:00,57.4,35.6,30.15,SW,233,4.7,7.1,44,0.00,BKN,,0.00,WeatherDisplay:10.37,2013-01-28 00:08:00,
2013-01-27 16:13:00,57.0,35.3,30.15,WSW,246,5.5,9.2,44,0.00,BKN,,0.00,WeatherDisplay:10.37,2013-01-28 00:13:00,
2013-01-27 16:18:00,57.1,35.4,30.15,SW,217,5.0,8.1,44,0.00,BKN,,0.00,WeatherDisplay:10.37,2013-01-28 00:18:00,
2013-01-27 16:23:00,57.2,35.5,30.15,SW,230,4.1,6.9,44,0.00,BKN,,0.00,WeatherDisplay:10.37,2013-01-28 00:23:00,
2013-01-27 16:28:00,57.1,35.4,30.15,WSW,247,4.2,8.1,44,0.00,BKN,,0.00,WeatherDisplay:10.37,2013-01-28 00:28:00,
2013-01-27 16:33:00,57.0,35.3,30.15,WSW,240,3.3,5.8,44,0.00,BKN,,0.00,WeatherDisplay:10.37,2013-01-28 00:33:00,
2013-01-27 16:38:00,56.6,34.9,30.15,WSW,241,3.6,5.8,44,0.00,BKN,,0.00,WeatherDisplay:10.37,2013-01-28 00:38:00,
2013-01-27 16:43:00,56.5,34.8,30.15,WSW,257,2.9,4.6,44,0.00,BKN,,0.00,WeatherDisplay:10.37,2013-01-28 00:43:00,
2013-01-27 16:48:00,56.4,34.7,30.15,WSW,237,4.5,6.9,44,0.00,BKN,,0.00,WeatherDisplay:10.37,2013-01-28 00:48:00,
2013-01-27 16:53:00,56.0,34.4,30.15,SW,217,3.2,5.8,44,0.00,BKN,,0.00,WeatherDisplay:10.37,2013-01-28 00:53:00,
2013-01-27 16:58:00,55.7,34.1,30.15,SW,236,3.3,6.9,44,0.00,BKN,,0.00,WeatherDisplay:10.37,2013-01-28 00:58:00,
2013-01-27 17:03:00,55.2,36.4,30.15,SSW,193,0.9,3.5,49,0.00,CLR,,0.00,WeatherDisplay:10.37,2013-01-28 01:03:00,
2013-01-27 17:08:00,54.9,36.1,30.15,SSW,205,2.2,4.7,49,0.00,CLR,,0.00,WeatherDisplay:10.37,2013-01-28 01:08:00,
2013-01-27 17:13:00,54.8,36.0,30.15,WSW,258,2.9,4.6,49,0.00,CLR,,0.00,WeatherDisplay:10.37,2013-01-28 01:13:00,
2013-01-27 17:18:00,54.3,35.5,30.16,SW,230,3.0,5.8,49,0.00,CLR,,0.00,WeatherDisplay:10.37,2013-01-28 01:18:00,
2013-01-27 17:23:00,53.9,35.2,30.16,WSW,247,1.7,3.5,49,0.00,CLR,,0.00,WeatherDisplay:10.37,2013-01-28 01:23:00,
2013-01-27 17:28:00,53.4,34.7,30.16,NW,308,1.1,2.3,49,0.00,CLR,,0.00,WeatherDisplay:10.37,2013-01-28 01:28:00,
2013-01-27 17:33:00,52.9,34.2,30.16,West,274,0.6,2.3,49,0.00,CLR,,0.00,WeatherDisplay:10.37,2013-01-28 01:33:00,
2013-01-27 17:38:00,52.7,34.1,30.16,West,261,0.0,0.0,49,0.00,CLR,,0.00,WeatherDisplay:10.37,2013-01-28 01:38:00,
2013-01-27 17:43:00,52.8,34.2,30.16,West,261,0.0,0.0,49,0.00,CLR,,0.00,WeatherDisplay:10.37,2013-01-28 01:43:00,
2013-01-27 17:48:00,52.1,33.5,30.16,West,261,0.0,0.0,49,0.00,CLR,,0.00,WeatherDisplay:10.37,2013-01-28 01:48:00,
2013-01-27 17:53:00,51.1,32.6,30.16,West,261,0.0,0.0,49,0.00,CLR,,0.00,WeatherDisplay:10.37,2013-01-28 01:53:00,
2013-01-27 17:58:00,50.8,32.3,30.16,West,272,0.8,3.5,49,0.00,CLR,,0.00,WeatherDisplay:10.37,2013-01-28 01:58:00,
2013-01-27 18:03:00,50.7,32.2,30.16,South,175,0.0,0.0,49,0.00,CLR,,0.00,WeatherDisplay:10.37,2013-01-28 02:03:00,
2013-01-27 18:08:00,50.3,31.8,30.16,SW,232,2.8,4.6,49,0.00,CLR,,0.00,WeatherDisplay:10.37,2013-01-28 02:08:00,
2013-01-27 18:13:00,50.9,32.4,30.16,SSW,192,1.7,4.6,49,0.00,CLR,,0.00,WeatherDisplay:10.37,2013-01-28 02:13:00,
2013-01-27 18:18:00,51.2,33.7,30.16,South,181,1.9,2.3,51,0.00,CLR,,0.00,WeatherDisplay:10.37,2013-01-28 02:18:00,
2013-01-27 18:23:00,50.8,33.3,30.16,WSW,258,2.9,4.6,51,0.00,CLR,,0.00,WeatherDisplay:10.37,2013-01-28 02:23:00,
2013-01-27 18:28:00,50.8,33.3,30.17,WSW,237,2.0,2.3,51,0.00,CLR,,0.00,WeatherDisplay:10.37,2013-01-28 02:28:00,
2013-01-27 18:33:00,50.0,32.6,30.17,West,265,0.0,0.0,51,0.00,CLR,,0.00,WeatherDisplay:10.37,2013-01-28 02:33:00,
2013-01-27 18:38:00,49.5,32.1,30.16,West,265,0.0,0.0,51,0.00,CLR,,0.00,WeatherDisplay:10.37,2013-01-28 02:38:00,
2013-01-27 18:43:00,49.8,32.4,30.16,WNW,302,0.0,0.0,51,0.00,CLR,,0.00,WeatherDisplay:10.37,2013-01-28 02:43:00,
2013-01-27 18:48:00,49.1,31.7,30.17,WNW,302,0.0,0.0,51,0.00,CLR,,0.00,WeatherDisplay:10.37,2013-01-28 02:48:00,
2013-01-27 18:53:00,48.3,31.0,30.17,NW,322,0.0,0.0,51,0.00,CLR,,0.00,WeatherDisplay:10.37,2013-01-28 02:53:00,
2013-01-27 18:58:00,47.5,30.3,30.17,NW,322,0.0,0.0,51,0.00,CLR,,0.00,WeatherDisplay:10.37,2013-01-28 02:58:00,
2013-01-27 19:03:00,47.2,32.3,30.17,NW,322,0.0,0.0,56,0.00,CLR,,0.00,WeatherDisplay:10.37,2013-01-28 03:03:00,
2013-01-27 19:08:00,47.4,32.5,30.17,North,353,0.0,0.0,56,0.00,CLR,,0.00,WeatherDisplay:10.37,2013-01-28 03:08:00,
2013-01-27 19:13:00,47.0,32.1,30.17,North,353,0.0,0.0,56,0.00,CLR,,0.00,WeatherDisplay:10.37,2013-01-28 03:13:00,
2013-01-27 19:18:00,47.2,32.3,30.17,West,263,0.0,2.3,56,0.00,CLR,,0.00,WeatherDisplay:10.37,2013-01-28 03:18:00,
2013-01-27 19:23:00,47.2,32.3,30.17,West,278,0.0,0.0,56,0.00,CLR,,0.00,WeatherDisplay:10.37,2013-01-28 03:23:00,
2013-01-27 19:28:00,47.0,32.1,30.17,West,281,1.5,2.4,56,0.00,CLR,,0.00,WeatherDisplay:10.37,2013-01-28 03:28:00,
2013-01-27 19:33:00,47.3,32.4,30.17,NNW,333,0.0,0.0,56,0.00,CLR,,0.00,WeatherDisplay:10.37,2013-01-28 03:33:00,
2013-01-27 19:38:00,47.2,32.3,30.17,NW,312,0.6,2.3,56,0.00,CLR,,0.00,WeatherDisplay:10.37,2013-01-28 03:38:00,
2013-01-27 19:43:00,47.5,32.6,30.18,NW,318,1.5,3.5,56,0.00,CLR,,0.00,WeatherDisplay:10.37,2013-01-28 03:43:00,
2013-01-27 19:48:00,47.4,32.5,30.18,NW,313,1.2,3.5,56,0.00,CLR,,0.00,WeatherDisplay:10.37,2013-01-28 03:48:00,
2013-01-27 19:53:00,47.3,32.4,30.18,WNW,299,0.4,1.7,56,0.00,CLR,,0.00,WeatherDisplay:10.37,2013-01-28 03:53:00,
2013-01-27 19:58:00,47.5,32.6,30.18,WNW,292,0.2,1.1,56,0.00,CLR,,0.00,WeatherDisplay:10.37,2013-01-28 03:58:00,
2013-01-27 20:03:00,47.5,32.6,30.18,WNW,285,0.0,0.0,56,0.00,CLR,,0.00,WeatherDisplay:10.37,2013-01-28 04:03:00,
2013-01-27 20:08:00,47.7,32.8,30.18,NW,306,0.5,3.5,56,0.00,CLR,,0.00,WeatherDisplay:10.37,2013-01-28 04:08:00,
2013-01-27 20:13:00,47.7,32.8,30.18,NW,306,0.7,1.1,56,0.00,CLR,,0.00,WeatherDisplay:10.37,2013-01-28 04:13:00,
2013-01-27 20:18:00,47.4,45.5,30.18,WNW,291,0.0,0.0,93,0.00,CLR,,0.00,WeatherDisplay:10.37,2013-01-28 04:18:00,
2013-01-27 20:23:00,47.5,45.6,30.18,NNW,337,0.8,3.5,93,0.00,CLR,,0.00,WeatherDisplay:10.37,2013-01-28 04:23:00,
2013-01-27 20:28:00,47.7,45.8,30.18,NW,316,2.5,3.5,93,0.00,CLR,,0.00,WeatherDisplay:10.37,2013-01-28 04:28:00,
2013-01-27 20:33:00,47.8,45.9,30.18,NNW,344,2.4,5.8,93,0.00,CLR,,0.00,WeatherDisplay:10.37,2013-01-28 04:33:00,
2013-01-27 20:38:00,48.4,46.5,30.18,NW,306,1.4,4.6,93,0.00,CLR,,0.00,WeatherDisplay:10.37,2013-01-28 04:38:00,
2013-01-27 20:43:00,48.8,46.9,30.18,West,278,3.6,5.8,93,0.00,CLR,,0.00,WeatherDisplay:10.37,2013-01-28 04:43:00,
2013-01-27 20:48:00,49.1,47.2,30.18,WNW,292,3.0,6.9,93,0.00,CLR,,0.00,WeatherDisplay:10.37,2013-01-28 04:48:00,
2013-01-27 20:53:00,49.0,47.1,30.17,WSW,258,4.4,6.9,93,0.00,CLR,,0.00,WeatherDisplay:10.37,2013-01-28 04:53:00,
2013-01-27 20:58:00,49.1,47.2,30.17,NW,320,1.7,5.8,93,0.00,CLR,,0.00,WeatherDisplay:10.37,2013-01-28 04:58:00,
2013-01-27 21:00:00,48.9,47.0,30.17,NW,322,3.2,6.9,93,0.00,CLR,,0.00,WeatherDisplay:10.37,2013-01-28 05:00:00,
2013-01-27 21:01:00,48.9,47.0,30.17,NW,322,2.5,5.8,93,0.00,CLR,,0.00,WeatherDisplay:10.37,2013-01-28 05:01:00,
2013-01-27 21:03:00,48.9,47.0,30.17,NW,325,2.6,5.8,93,0.00,CLR,,0.00,WeatherDisplay:10.37,2013-01-28 05:03:00,
2013-01-27 21:05:00,48.9,47.0,30.17,WNW,301,1.0,7.0,93,0.00,CLR,,0.00,WeatherDisplay:10.37,2013-01-28 05:05:00,
2013-01-27 21:10:00,48.7,46.8,30.17,NW,305,2.0,9.0,93,0.00,CLR,,0.00,WeatherDisplay:10.37,2013-01-28 05:10:00,
2013-01-27 21:15:00,48.7,46.8,30.17,NNW,333,2.0,4.6,93,0.00,CLR,,0.00,WeatherDisplay:10.37,2013-01-28 05:15:00,
2013-01-27 21:20:00,48.7,46.5,30.17,NNE,14,2.2,5.8,92,0.00,CLR,,0.00,WeatherDisplay:10.37,2013-01-28 05:20:00,
2013-01-27 21:25:00,48.7,46.5,30.17,NW,313,2.5,5.8,92,0.00,CLR,,0.00,WeatherDisplay:10.37,2013-01-28 05:25:00,
2013-01-27 21:30:00,48.5,46.3,30.17,WNW,285,4.4,6.9,92,0.00,CLR,,0.00,WeatherDisplay:10.37,2013-01-28 05:30:00,
2013-01-27 21:35:00,48.5,46.3,30.17,West,270,2.3,6.2,92,0.00,CLR,,0.00,WeatherDisplay:10.37,2013-01-28 05:35:00,
2013-01-27 21:40:00,48.4,46.2,30.18,WNW,295,4.8,8.1,92,0.00,CLR,,0.00,WeatherDisplay:10.37,2013-01-28 05:40:00,
2013-01-27 21:45:00,48.2,46.0,30.18,NNW,339,3.6,8.1,92,0.00,CLR,,0.00,WeatherDisplay:10.37,2013-01-28 05:45:00,
2013-01-27 21:50:00,48.3,46.1,30.18,NW,326,0.5,2.3,92,0.00,CLR,,0.00,WeatherDisplay:10.37,2013-01-28 05:50:00,
2013-01-27 21:55:00,48.1,45.9,30.18,WNW,285,2.7,5.8,92,0.00,CLR,,0.00,WeatherDisplay:10.37,2013-01-28 05:55:00,
2013-01-27 22:00:00,48.0,45.8,30.18,West,278,2.9,6.9,92,0.00,CLR,,0.00,WeatherDisplay:10.37,2013-01-28 06:00:00,
2013-01-27 22:05:00,48.0,47.7,30.18,WNW,282,2.2,4.6,99,0.00,CLR,,0.00,WeatherDisplay:10.37,2013-01-28 06:05:00,
2013-01-27 22:10:00,47.9,47.6,30.18,West,278,3.2,6.9,99,0.00,CLR,,0.00,WeatherDisplay:10.37,2013-01-28 06:10:00,
2013-01-27 22:15:00,47.8,47.5,30.18,WSW,254,2.6,8.0,99,0.00,CLR,,0.00,WeatherDisplay:10.37,2013-01-28 06:15:00,
2013-01-27 22:20:00,47.7,47.4,30.18,WNW,299,3.3,4.6,99,0.00,CLR,,0.00,WeatherDisplay:10.37,2013-01-28 06:20:00,
2013-01-27 22:25:00,47.5,47.2,30.18,North,360,2.5,6.9,99,0.00,CLR,,0.00,WeatherDisplay:10.37,2013-01-28 06:25:00,
2013-01-27 22:30:00,47.7,47.4,30.18,NW,316,3.9,7.7,99,0.00,CLR,,0.00,WeatherDisplay:10.37,2013-01-28 06:30:00,
2013-01-27 22:35:00,47.6,47.3,30.18,NW,320,3.3,5.4,99,0.00,CLR,,0.00,WeatherDisplay:10.37,2013-01-28 06:35:00,
2013-01-27 22:40:00,47.6,47.3,30.19,WNW,302,3.2,5.8,99,0.00,CLR,,0.00,WeatherDisplay:10.37,2013-01-28 06:40:00,
2013-01-27 22:45:00,47.4,47.1,30.19,WNW,285,5.0,8.1,99,0.00,CLR,,0.00,WeatherDisplay:10.37,2013-01-28 06:45:00,
2013-01-27 22:50:00,47.3,47.0,30.19,West,264,3.5,6.9,99,0.00,CLR,,0.00,WeatherDisplay:10.37,2013-01-28 06:50:00,
2013-01-27 22:55:00,47.3,47.0,30.19,NW,320,4.1,8.1,99,0.00,CLR,,0.00,WeatherDisplay:10.37,2013-01-28 06:55:00,
2013-01-27 23:00:00,47.3,47.0,30.19,NW,316,5.9,12.7,99,0.00,CLR,,0.00,WeatherDisplay:10.37,2013-01-28 07:00:00,
2013-01-27 23:05:00,47.4,47.1,30.19,NW,326,5.0,11.5,99,0.00,CLR,,0.00,WeatherDisplay:10.37,2013-01-28 07:05:00,
2013-01-27 23:10:00,47.2,46.9,30.19,WNW,282,3.4,6.0,99,0.00,CLR,,0.00,WeatherDisplay:10.37,2013-01-28 07:10:00,
2013-01-27 23:15:00,46.9,46.6,30.19,WNW,291,1.6,5.8,99,0.00,CLR,,0.00,WeatherDisplay:10.37,2013-01-28 07:15:00,
2013-01-27 23:20:00,47.0,46.7,30.19,WNW,294,2.6,7.4,99,0.00,CLR,,0.00,WeatherDisplay:10.37,2013-01-28 07:20:00,
2013-01-27 23:25:00,46.8,46.5,30.19,West,263,4.3,9.2,99,0.00,CLR,,0.00,WeatherDisplay:10.37,2013-01-28 07:25:00,
2013-01-27 23:30:00,46.8,46.5,30.20,WNW,288,4.5,9.2,99,0.00,CLR,,0.00,WeatherDisplay:10.37,2013-01-28 07:30:00,
2013-01-27 23:35:00,46.8,46.5,30.20,West,275,4.6,6.9,99,0.00,CLR,,0.00,WeatherDisplay:10.37,2013-01-28 07:35:00,
2013-01-27 23:40:00,46.8,46.5,30.20,NNW,342,4.6,11.5,99,0.00,CLR,,0.00,WeatherDisplay:10.37,2013-01-28 07:40:00,
2013-01-27 23:45:00,46.8,46.5,30.21,West,271,5.3,9.8,99,0.00,CLR,,0.00,WeatherDisplay:10.37,2013-01-28 07:45:00,
2013-01-27 23:50:00,46.9,46.6,30.21,West,278,4.4,9.2,99,0.00,CLR,,0.00,WeatherDisplay:10.37,2013-01-28 07:50:00,
2013-01-27 23:55:00,46.9,46.6,30.21,WNW,294,5.3,9.2,99,0.00,CLR,,0.00,WeatherDisplay:10.37,2013-01-28 07:55:00,